N323AB KCPM-KCPM

Flight info

Callsign N323AB
Flight time N/A
Altitude 3000
Route VFR
Aircraft DA40/L-V/N

Departure

Time 2026-04-18 14:15
Airport Compton Woodley Airport (KCPM)

Arrival

Time N/A
Airport Compton Woodley Airport (KCPM)
Time Latitude Longitude Altitude Speed Heading
2026-04-18 14:11 33.89068 -118.24243 96 ft 0 kts 359°
2026-04-18 14:12 33.89069 -118.24243 96 ft 1 kts 359°
2026-04-18 14:12 33.89056 -118.24319 95 ft 19 kts 240°
2026-04-18 14:13 33.89048 -118.24498 97 ft 24 kts 269°
2026-04-18 14:13 33.89047 -118.24705 101 ft 26 kts 269°
2026-04-18 14:13 33.89046 -118.24929 102 ft 22 kts 270°
2026-04-18 14:13 33.89013 -118.24959 103 ft 11 kts 92°
2026-04-18 14:14 33.89019 -118.24683 103 ft 66 kts 91°
2026-04-18 14:14 33.89022 -118.24013 256 ft 88 kts 89°
2026-04-18 14:14 33.89024 -118.23239 467 ft 97 kts 90°
2026-04-18 14:14 33.89024 -118.22388 621 ft 107 kts 97°
2026-04-18 14:15 33.88673 -118.21676 938 ft 99 kts 141°
2026-04-18 14:15 33.87991 -118.21429 1102 ft 109 kts 186°
2026-04-18 14:15 33.87364 -118.21895 1332 ft 110 kts 237°
2026-04-18 14:15 33.87187 -118.22809 1510 ft 114 kts 266°
2026-04-18 14:16 33.87134 -118.23769 1684 ft 118 kts 267°
2026-04-18 14:16 33.87086 -118.24765 1836 ft 123 kts 266°
2026-04-18 14:16 33.87028 -118.25789 1987 ft 124 kts 266°
2026-04-18 14:16 33.86964 -118.26866 1981 ft 133 kts 270°
2026-04-18 14:17 33.86751 -118.27951 1975 ft 138 kts 250°
2026-04-18 14:17 33.86432 -118.29048 1976 ft 139 kts 251°
2026-04-18 14:17 33.85841 -118.31107 2366 ft 125 kts 251°
2026-04-18 14:18 33.85677 -118.33131 2749 ft 122 kts 271°
2026-04-18 14:18 33.85678 -118.34150 2946 ft 122 kts 271°
2026-04-18 14:19 33.85690 -118.36326 3037 ft 138 kts 271°
2026-04-18 14:19 33.85794 -118.37475 3037 ft 140 kts 295°
2026-04-18 14:19 33.87401 -118.37832 3036 ft 137 kts 47°
2026-04-18 14:20 33.87675 -118.36790 3036 ft 136 kts 90°
2026-04-18 14:20 33.87629 -118.35648 3035 ft 137 kts 91°
2026-04-18 14:20 33.87591 -118.34503 3034 ft 137 kts 91°
2026-04-18 14:20 33.87552 -118.33361 3035 ft 136 kts 91°
2026-04-18 14:21 33.87512 -118.32237 3035 ft 136 kts 91°
2026-04-18 14:21 33.87472 -118.31100 3034 ft 136 kts 91°
2026-04-18 14:21 33.87430 -118.29963 3035 ft 136 kts 91°
2026-04-18 14:22 33.87348 -118.27688 3035 ft 136 kts 91°
2026-04-18 14:22 33.87308 -118.26562 3033 ft 136 kts 91°
2026-04-18 14:22 33.86934 -118.24386 3018 ft 139 kts 135°
2026-04-18 14:23 33.86021 -118.24089 3006 ft 144 kts 190°